Weather History for KJYR - January, 2014

Change the Weather History Date:

Sunday, January 12, 2014

  Actual Average Record
Temperature  
Mean Temperature 42 °F -  
Max Temperature 53 °F 32 °F 61 °F (1961)
Min Temperature 32 °F 11 °F -23 °F (1974)
Degree Days  
Heating Degree Days 22    
Moisture  
Dew Point 30 °F    
Average Humidity 67    
Maximum Humidity 87    
Minimum Humidity 41    
Precipitation  
Precipitation 0.00 in - - ()
Sea Level Pressure  
Sea Level Pressure 29.57 in    
Wind  
Wind Speed 11 mph (West)    
Max Wind Speed 17 mph    
Max Gust Speed -    
Visibility 10 miles    
Events Rain    
Averages and records for this station are not official NWS values.
T = Trace of Precipitation, MM = Missing Value Source: NWS Daily Summary

Daily Weather History Graph

Daily Weather History Graph

Search for Another Location

Airport or City:

Trip Planner

Search our weather history database for the weather conditions in past years. The results will help you decide how hot, cold, wet, or windy it might be!

Date:

Astronomy

Jan. 12, 2014 Rise Set
Actual Time 7:53 AM CST 5:24 PM CST
Civil Twilight 7:23 AM CST 5:54 PM CST
Nautical Twilight 6:49 AM CST 6:28 PM CST
Astronomical Twilight 6:16 AM CST 7:01 PM CST
Moon 2:53 PM CST (1/12) 4:53 AM CST (1/12)
Length of Visible Light 10h 30m
Length of Day
9h 30m
Waxing Gibbous, 90% of the Moon is Illuminated
Jan 12
Waxing Gibbous
Jan 15
Full
Jan 23
Last Quarter
Jan 30
New
Feb 6
First Quarter

Hourly Weather History & Observations

Time (CST) Temp. Windchill Dew Point Humidity Pressure Visibility Wind Dir Wind Speed Gust Speed Precip Events Conditions
12:15 AM 35.6 °F 27.5 °F 28.4 °F 75% 29.66 in 10.0 mi South 11.5 mph - N/A   Clear
12:35 AM 35.6 °F 27.1 °F 26.6 °F 70% 29.64 in 10.0 mi South 12.7 mph - N/A   Clear
12:55 AM 35.6 °F 27.1 °F 26.6 °F 70% 29.62 in 10.0 mi SSW 12.7 mph - N/A   Clear
1:15 AM 35.6 °F 26.6 °F 26.6 °F 70% 29.61 in 10.0 mi SSW 13.8 mph - N/A   Clear
1:35 AM 35.6 °F 26.6 °F 26.6 °F 70% 29.60 in 10.0 mi South 13.8 mph - N/A   Clear
1:55 AM 35.6 °F 26.6 °F 26.6 °F 70% 29.58 in 10.0 mi South 13.8 mph - N/A   Clear
2:15 AM 35.6 °F 26.6 °F 26.6 °F 70% 29.58 in 10.0 mi SSW 13.8 mph - N/A   Clear
2:35 AM 35.6 °F 27.1 °F 26.6 °F 70% 29.57 in 10.0 mi South 12.7 mph - N/A   Clear
2:55 AM 35.6 °F 27.5 °F 26.6 °F 70% 29.58 in 10.0 mi SSW 11.5 mph - N/A   Clear
3:15 AM 35.6 °F 27.1 °F 26.6 °F 70% 29.56 in 10.0 mi SSW 12.7 mph - N/A   Clear
3:35 AM 35.6 °F 27.1 °F 26.6 °F 70% 29.57 in 10.0 mi SSW 12.7 mph - N/A   Clear
3:55 AM 35.6 °F 27.5 °F 26.6 °F 70% 29.56 in 10.0 mi SSW 11.5 mph - N/A   Clear
4:15 AM 35.6 °F 26.6 °F 26.6 °F 70% 29.54 in 10.0 mi South 13.8 mph - N/A   Clear
4:35 AM 33.8 °F 23.9 °F 26.6 °F 75% 29.53 in 10.0 mi South 15.0 mph - N/A   Clear
4:55 AM 35.6 °F 27.1 °F 26.6 °F 70% 29.54 in 10.0 mi South 12.7 mph - N/A   Clear
5:15 AM 33.8 °F 25.8 °F 26.6 °F 75% 29.53 in 10.0 mi SSW 10.4 mph - N/A   Clear
5:35 AM 33.8 °F 25.3 °F 26.6 °F 75% 29.53 in 10.0 mi SSW 11.5 mph - N/A   Clear
5:55 AM 33.8 °F 26.4 °F 26.6 °F 75% 29.52 in 10.0 mi SSW 9.2 mph - N/A   Clear
6:15 AM 35.6 °F 28.0 °F 26.6 °F 70% 29.52 in 10.0 mi SSW 10.4 mph - N/A   Clear
6:35 AM 35.6 °F 28.0 °F 26.6 °F 70% 29.51 in 10.0 mi SSW 10.4 mph - N/A   Clear
6:55 AM 33.8 °F 25.8 °F 26.6 °F 75% 29.51 in 10.0 mi South 10.4 mph - N/A   Clear
7:15 AM 33.8 °F 25.8 °F 26.6 °F 75% 29.51 in 10.0 mi SSW 10.4 mph - N/A   Clear
7:35 AM 33.8 °F 26.4 °F 26.6 °F 75% 29.51 in 10.0 mi SSW 9.2 mph - N/A   Clear
7:55 AM 33.8 °F 26.4 °F 26.6 °F 75% 29.50 in 10.0 mi South 9.2 mph - N/A   Clear
8:15 AM 32.0 °F 26.4 °F 26.6 °F 80% 29.50 in 10.0 mi SSW 5.8 mph - N/A   Clear
8:35 AM 32.0 °F 24.8 °F 26.6 °F 80% 29.50 in 10.0 mi SSW 8.1 mph - N/A   Clear
8:55 AM 32.0 °F 25.6 °F 26.6 °F 80% 29.50 in 10.0 mi SSW 6.9 mph - N/A   Clear
9:15 AM 33.8 °F 25.8 °F 26.6 °F 75% 29.51 in 10.0 mi SSW 10.4 mph - N/A   Clear
9:35 AM 35.6 °F 28.6 °F 26.6 °F 70% 29.51 in 10.0 mi SSW 9.2 mph - N/A   Clear
9:55 AM 39.2 °F 32.5 °F 28.4 °F 65% 29.51 in 10.0 mi SW 10.4 mph - N/A   Clear
10:15 AM 41.0 °F 35.2 °F 28.4 °F 61% 29.51 in 10.0 mi WSW 9.2 mph - N/A   Clear
10:35 AM 44.6 °F 39.7 °F 28.4 °F 53% 29.52 in 10.0 mi WSW 9.2 mph - N/A   Clear
10:55 AM 48.2 °F - 30.2 °F 50% 29.52 in 10.0 mi SW 6.9 mph - N/A   Clear
11:15 AM 50.0 °F - 32.0 °F 50% 29.51 in 10.0 mi West 8.1 mph - N/A   Clear
11:35 AM 53.6 °F - 32.0 °F 44% 29.50 in 10.0 mi WNW 8.1 mph - N/A   Clear
11:55 AM 53.6 °F - 30.2 °F 41% 29.49 in 10.0 mi NW 9.2 mph - N/A   Clear
12:15 PM 50.0 °F - 30.2 °F 47% 29.48 in 10.0 mi WNW 8.1 mph - N/A   Clear
12:35 PM 50.0 °F - 32.0 °F 50% 29.48 in 10.0 mi NW 8.1 mph - N/A   Clear
12:55 PM 50.0 °F - 32.0 °F 50% 29.47 in 10.0 mi NNW 9.2 mph - N/A   Clear
1:15 PM 50.0 °F - 32.0 °F 50% 29.47 in 10.0 mi NNW 9.2 mph - N/A   Clear
1:35 PM 50.0 °F - 32.0 °F 50% 29.47 in 10.0 mi NNW 8.1 mph - N/A   Clear
1:55 PM 50.0 °F - 32.0 °F 50% 29.49 in 10.0 mi NNW 6.9 mph - N/A   Clear
2:15 PM 50.0 °F - 32.0 °F 50% 29.49 in 10.0 mi NNW 8.1 mph - N/A   Clear
2:35 PM 50.0 °F - 32.0 °F 50% 29.51 in 10.0 mi NNW 11.5 mph - N/A   Clear
2:55 PM 50.0 °F - 32.0 °F 50% 29.52 in 10.0 mi NW 12.7 mph - N/A   Clear
3:15 PM 50.0 °F - 32.0 °F 50% 29.53 in 10.0 mi NNW 9.2 mph - N/A   Clear
3:35 PM 50.0 °F - 32.0 °F 50% 29.54 in 10.0 mi NNW 6.9 mph - N/A   Clear
3:55 PM 48.2 °F - 32.0 °F 54% 29.55 in 10.0 mi NW 4.6 mph - N/A   Partly Cloudy
4:15 PM 46.4 °F 42.4 °F 32.0 °F 57% 29.56 in 10.0 mi NW 8.1 mph - N/A   Mostly Cloudy
4:35 PM 46.4 °F 41.9 °F 32.0 °F 57% 29.58 in 10.0 mi NW 9.2 mph - N/A   Overcast
4:55 PM 46.4 °F 41.9 °F 32.0 °F 57% 29.59 in 10.0 mi NW 9.2 mph - N/A   Overcast
5:15 PM 44.6 °F 39.2 °F 32.0 °F 61% 29.60 in 10.0 mi NW 10.4 mph - N/A   Scattered Clouds
5:35 PM 42.8 °F 38.0 °F 32.0 °F 66% 29.61 in 10.0 mi NW 8.1 mph - N/A   Mostly Cloudy
5:55 PM 42.8 °F 37.5 °F 32.0 °F 66% 29.62 in 10.0 mi NW 9.2 mph - N/A   Overcast
6:15 PM 42.8 °F 36.6 °F 32.0 °F 66% 29.62 in 10.0 mi NW 11.5 mph - N/A   Overcast
6:35 PM 44.6 °F 39.2 °F 32.0 °F 61% 29.65 in 10.0 mi WNW 10.4 mph - N/A   Overcast
6:55 PM 44.6 °F 37.2 °F 32.0 °F 61% 29.65 in 10.0 mi NW 17.3 mph - N/A   Mostly Cloudy
7:15 PM 44.6 °F 39.7 °F 35.6 °F 71% 29.67 in 10.0 mi NNW 9.2 mph - N/A Rain Light Rain
7:35 PM 44.6 °F 39.7 °F 35.6 °F 71% 29.66 in 10.0 mi North 9.2 mph - N/A Rain Light Rain
7:55 PM 42.8 °F 40.1 °F 35.6 °F 76% 29.65 in 10.0 mi North 4.6 mph - N/A   Overcast
8:15 PM 42.8 °F - 35.6 °F 76% 29.65 in 10.0 mi Calm Calm - N/A   Overcast
8:55 PM 39.2 °F 33.6 °F 35.6 °F 87% 29.68 in 10.0 mi WSW 8.1 mph - N/A   Overcast
9:15 PM 39.2 °F 33.6 °F 35.6 °F 87% 29.69 in 10.0 mi West 8.1 mph - N/A   Overcast
9:35 PM 37.4 °F 31.4 °F 33.8 °F 87% 29.70 in 10.0 mi West 8.1 mph - N/A   Overcast
9:55 PM 37.4 °F 32.1 °F 33.8 °F 87% 29.69 in 10.0 mi West 6.9 mph - N/A   Overcast
10:15 PM 39.2 °F 33.0 °F 32.0 °F 75% 29.69 in 10.0 mi WNW 9.2 mph - N/A   Overcast
10:35 PM 37.4 °F 30.3 °F 32.0 °F 81% 29.70 in 10.0 mi WNW 10.4 mph - N/A   Mostly Cloudy
10:55 PM 39.2 °F 33.0 °F 32.0 °F 75% 29.70 in 10.0 mi NW 9.2 mph - N/A   Scattered Clouds
11:15 PM 37.4 °F 30.8 °F 32.0 °F 81% 29.70 in 10.0 mi NW 9.2 mph - N/A   Scattered Clouds
11:35 PM 37.4 °F 30.3 °F 30.2 °F 75% 29.70 in 10.0 mi NW 10.4 mph - N/A   Partly Cloudy
11:55 PM 37.4 °F 30.3 °F 28.4 °F 70% 29.70 in 10.0 mi NW 10.4 mph - N/A   Partly Cloudy